Location: Newark
(32.8014°N, 52.8711°E)
Time: 00:58:05
(UTC+00:00)

Envisat - Pass Details

Date: 29 January 2020
Orbit: 764 x 766 km, 98.1° (Epoch: 20 February)

Event Time Altitude Azimuth Distance (km) Brightness Sun altitude
Rises 14:54:59 0° 184° (S) 3,216 6.5 -12.3°
Reaches altitude 10° 14:57:24 10° 191° (SSW) 2,294 5.8 -12.8°
Maximum altitude 15:02:09 41° 261° (W) 1,101 4.4 -13.8°
Drops below altitude 10° 15:06:56 10° 332° (NNW) 2,306 5.7 -14.8°
Sets 15:09:23 0° 339° (NNW) 3,236 6.4 -15.3°
